Terminal Aerodrome Forecast
Issued by NWS

Home | Current Version | Previous Version | Graphics & Text | Print | Product List | Glossary Off
Versions: 1 2 3 4 5 6 7 8 9 10 11 12 13 14 15 16 17 18 19 20 21 22 23 24 25 26 27 28 29 30 31

000
FTUS43 KDDC 281838 AAB
TAFGCK
TAF AMD
KGCK 281838Z 2819/2918 08006KT 1/2SM +TSRA FG SCT007 OVC045CB
     FM290000 04023G33KT 2SM -RA OVC003=

USA.gov is the U.S. government's official web portal to all federal, state and local government web resources and services.